Wind_Speed
32 32 33 32 31 32 31 31 30 33 36 42 45 48 52 55 56 60 65 68 71 74 75 79 81 83 81 82 87 85 76 64 55 47 37 29 24 21 20 25 32 39 46
36 35 34 34 34 32 33 32 30 33 35 40 44 48 52 54 55 58 64 68 70 73 74 78 79 82 85 82 86 88 86 79 67 56 44 36 27 20 19 19 24 29 38
39 37 37 37 36 36 34 33 32 32 35 38 43 46 51 54 55 57 61 66 70 72 74 77 80 81 82 86 84 87 91 87 80 68 54 40 34 27 18 14 18 22 29
48 43 40 39 39 38 36 35 35 35 35 38 41 45 47 52 57 57 58 63 67 72 72 75 78 82 81 84 86 87 90 93 88 79 65 49 33 30 25 18 12 15 22
51 49 47 43 41 42 41 39 37 38 39 39 41 45 46 50 54 59 59 61 65 68 70 73 76 80 82 83 87 88 88 93 92 84 76 58 40 25 25 20 13 13 17
52 51 51 50 48 44 43 43 42 39 41 41 41 44 47 48 53 56 60 60 62 65 68 70 74 77 81 83 84 88 88 91 92 87 78 66 46 28 17 18 17 11 12
55 52 50 53 52 50 47 45 45 45 44 44 45 43 47 48 49 56 57 60 60 61 65 68 71 75 80 82 84 86 88 90 91 88 79 67 49 33 19 13 12 12 11
52 53 53 54 53 49 52 50 48 47 47 48 48 47 48 49 50 54 56 58 60 60 61 66 68 72 76 81 83 83 89 90 91 90 80 64 47 34 23 14 11 8 8
53 54 55 55 54 49 49 52 52 51 50 52 53 53 51 52 53 54 55 57 58 57 58 61 67 69 74 78 81 83 87 92 92 91 80 62 45 33 24 17 14 9 4
54 53 54 56 57 55 51 51 48 49 49 50 51 53 51 51 54 54 53 51 52 54 55 57 63 67 71 75 80 82 85 91 93 91 79 60 44 33 25 21 20 18 12
47 52 54 54 56 58 57 54 51 49 46 44 46 46 48 47 49 50 49 46 48 50 52 54 58 64 69 72 76 80 84 88 93 89 80 61 44 33 26 26 27 27 23
54 46 49 53 55 57 57 58 55 53 50 46 45 43 45 44 45 47 46 44 45 48 49 52 54 59 65 69 72 76 81 83 90 89 82 63 46 37 31 32 33 33 31
50 54 51 47 50 56 58 58 58 56 53 50 48 44 43 43 41 44 43 45 44 46 47 50 52 55 61 65 68 71 76 79 84 88 87 71 63 53 40 34 34 34 33
48 53 54 53 50 49 54 58 58 58 57 54 51 48 45 43 40 41 42 41 43 44 46 48 51 51 56 61 64 66 70 74 77 82 82 79 65 54 49 45 41 39 35
47 50 52 54 52 54 50 50 55 57 58 58 55 51 48 46 43 39 40 39 39 41 43 46 48 49 51 55 60 62 64 68 70 72 75 72 70 61 53 48 44 38 32
51 49 47 47 52 54 55 51 50 53 56 59 59 57 52 50 45 41 38 37 35 38 40 42 45 46 47 50 55 58 60 61 64 66 67 69 66 65 64 58 51 47 45
57 54 51 45 48 53 52 54 54 50 52 56 57 59 58 54 49 44 39 36 35 34 38 39 40 43 45 46 49 53 55 57 58 61 62 63 65 65 62 64 63 60 55
56 55 49 46 47 43 48 52 50 55 53 53 53 56 60 57 53 50 42 36 35 34 34 37 38 38 42 43 45 48 51 52 54 55 56 57 58 59 59 56 56 58 58
54 57 55 52 50 50 52 49 53 51 55 56 53 53 55 58 57 53 48 41 35 34 33 34 36 37 38 41 42 44 47 49 50 52 51 52 52 53 53 53 51 49 51
58 57 59 62 62 62 57 54 54 53 55 56 59 53 53 56 59 57 52 46 39 35 33 33 33 35 37 38 38 41 43 46 47 47 48 48 49 47 49 49 50 49 46
60 57 60 62 64 66 65 61 59 61 57 58 57 57 52 55 58 60 56 51 46 39 36 34 32 32 35 36 37 37 40 43 45 46 46 45 45 46 45 45 45 45 47
61 57 56 60 63 63 66 66 62 60 55 56 59 62 55 56 57 59 60 56 51 46 39 36 35 32 33 36 37 36 36 39 42 43 45 44 43 42 43 43 43 42 42
63 61 58 60 60 62 64 65 65 63 54 57 55 61 61 58 57 57 61 61 56 51 46 39 36 35 34 35 37 36 35 36 39 41 42 44 44 41 41 41 40 41 41
65 61 57 59 58 60 61 60 60 61 59 56 52 60 64 59 58 58 61 63 61 56 51 45 39 37 35 35 36 37 36 35 36 37 39 40 41 42 42 41 40 38 39
63 59 58 58 59 61 62 62 62 61 58 54 57 61 62 63 58 58 60 63 64 61 56 50 45 39 37 36 35 38 37 37 37 36 37 38 39 40 41 43 42 41 39
63 60 59 59 62 64 62 60 61 60 59 59 58 61 67 64 61 56 58 61 65 64 60 55 49 44 40 38 36 37 40 38 38 37 36 37 38 38 40 42 43 43 42
Wind_Direction
299 302 304 308 312 317 319 322 327 337 342 349 352 352 353 353 356 358 358 358 359 1 4 7 7 9 9 11 13 11 9 9 5 358 340 335 330 307 278 256 242 233 230
292 295 297 302 306 310 313 318 319 327 336 345 349 350 352 352 354 355 358 358 359 360 3 5 6 7 10 10 11 12 11 8 8 6 358 339 338 333 300 269 249 237 229
289 287 292 296 300 304 308 313 315 319 329 338 342 348 349 350 352 352 355 357 358 359 1 4 6 6 8 10 10 11 11 9 6 8 6 356 338 338 326 290 259 243 232
285 288 286 290 294 298 302 307 310 312 322 329 334 340 347 347 349 350 351 354 356 358 0 2 5 7 8 9 11 10 10 9 6 3 6 4 354 337 336 325 289 244 234
280 286 286 286 288 292 296 301 304 307 314 320 327 333 338 344 347 347 349 350 354 357 360 1 4 6 6 7 9 10 9 8 5 2 360 3 1 350 336 330 311 273 240
275 280 285 286 288 288 292 295 298 302 309 314 322 327 330 337 341 345 346 348 351 355 357 1 2 4 5 7 7 10 9 9 5 1 357 359 359 360 349 331 322 299 247
272 275 279 283 286 288 289 290 293 297 301 310 317 324 326 330 336 340 342 345 347 351 354 358 3 3 6 6 7 10 9 9 5 1 358 357 357 360 2 353 330 317 291
268 270 272 274 279 285 288 290 292 294 297 301 307 314 320 325 330 334 339 342 344 347 352 357 1 4 4 6 8 9 10 9 6 1 358 357 358 1 5 8 8 344 314
271 270 269 272 274 277 283 288 291 294 297 299 301 306 313 319 322 328 334 337 339 344 349 356 359 2 5 5 6 8 9 9 8 2 0 0 1 5 11 17 28 33 12
270 269 270 271 273 275 274 280 285 291 296 300 303 306 313 317 318 322 329 334 336 340 346 354 357 360 4 5 6 7 9 10 9 4 4 5 6 11 18 28 31 39 50
277 271 270 270 270 272 273 274 277 282 287 294 300 305 310 316 318 323 329 334 334 338 343 350 356 358 1 5 6 7 10 10 12 8 10 11 14 21 27 38 44 45 45
290 285 275 272 272 271 270 272 273 276 280 285 291 297 304 312 317 322 325 332 333 334 341 345 353 356 360 5 6 6 9 12 14 13 16 18 26 31 39 47 48 50 50
285 287 286 280 275 272 271 270 269 271 275 278 282 288 295 302 311 316 322 323 329 331 337 341 348 356 358 2 6 7 9 13 15 17 19 24 35 31 35 43 50 51 49
281 279 280 284 281 277 274 272 273 271 269 272 276 281 287 292 301 310 315 317 321 327 332 339 343 353 357 360 5 7 8 12 16 20 23 24 30 34 34 33 36 38 39
288 286 280 275 276 279 277 274 271 273 274 271 271 274 279 284 291 298 308 315 314 319 326 333 338 345 353 358 2 6 8 10 14 18 23 25 28 35 38 42 42 40 37
289 289 283 282 272 274 279 279 275 271 269 271 271 271 272 276 282 289 297 308 313 309 318 326 332 338 347 354 358 4 7 9 12 15 19 23 27 31 38 40 40 44 45
290 290 291 283 276 271 271 276 278 277 271 267 268 269 270 270 274 279 286 296 305 306 309 318 326 332 339 347 355 358 6 8 9 13 15 19 22 26 32 35 38 42 43
288 288 287 284 283 278 270 269 273 275 274 271 266 265 266 267 269 272 276 282 293 302 305 310 317 325 331 339 347 354 359 7 8 8 12 16 19 23 24 30 34 37 41
282 282 280 283 279 282 284 270 271 270 271 271 269 264 262 262 263 266 268 273 278 289 299 304 310 318 325 331 339 346 353 359 6 7 7 12 16 18 21 23 27 33 35
286 278 277 279 277 278 282 278 274 274 266 268 269 266 264 258 259 260 262 266 269 276 286 297 302 309 316 323 331 338 345 352 359 3 5 6 9 14 15 18 21 23 27
287 286 279 278 280 279 277 279 279 277 270 260 265 266 263 260 257 258 258 260 263 266 273 283 293 299 307 315 322 330 336 343 350 356 359 3 4 6 11 12 14 16 17
281 283 285 279 277 277 276 277 277 277 274 265 263 263 261 258 256 254 255 254 258 260 263 270 281 290 298 305 313 319 327 334 341 346 352 355 0 1 3 6 7 10 11
278 282 283 280 275 277 276 274 273 273 271 266 263 261 262 256 255 253 251 252 252 255 257 261 269 279 287 296 304 311 319 325 332 338 344 348 352 355 356 1 2 3 5
277 282 283 281 277 276 275 272 270 268 268 263 258 259 259 256 253 251 249 249 249 250 252 255 258 267 277 285 293 302 310 317 323 330 335 341 343 347 351 352 355 357 356
280 282 283 279 278 276 273 272 268 266 262 260 253 254 258 259 254 250 247 246 247 247 248 250 254 257 266 275 284 292 299 307 313 321 326 331 336 339 341 344 346 349 353
282 284 283 279 275 273 274 271 266 265 264 257 250 251 258 258 256 252 247 245 244 245 245 247 249 252 256 265 273 283 291 297 304 309 316 321 326 329 334 336 338 341 342
Height
10707 10702 10698 10694 10690 10685 10680 10674 10667 10660 10653 10645 10637 10627 10617 10606 10595 10583 10569 10555 10540 10524 10506 10489 10470 10450 10430 10411 10392 10373 10354 10338 10323 10307 10292 10284 10278 10272 10269 10269 10271 10275 10281
10700 10696 10691 10687 10683 10679 10674 10669 10663 10656 10649 10642 10634 10624 10614 10604 10593 10581 10568 10554 10540 10524 10507 10489 10470 10452 10433 10411 10392 10373 10354 10335 10320 10306 10291 10278 10272 10268 10263 10261 10261 10265 10268
10691 10688 10685 10681 10676 10672 10668 10663 10657 10651 10644 10637 10629 10621 10612 10601 10591 10579 10567 10554 10540 10524 10507 10489 10470 10454 10435 10415 10394 10374 10355 10335 10318 10305 10292 10278 10265 10260 10256 10255 10254 10255 10258
10681 10679 10676 10673 10669 10665 10661 10656 10651 10645 10639 10633 10625 10617 10609 10599 10588 10578 10566 10554 10540 10525 10509 10491 10473 10455 10437 10418 10396 10375 10356 10337 10319 10301 10290 10278 10267 10255 10249 10247 10248 10249 10250
10669 10669 10667 10664 10661 10657 10653 10649 10644 10639 10633 10627 10621 10613 10605 10596 10586 10576 10565 10553 10540 10527 10511 10494 10476 10457 10439 10420 10400 10379 10359 10341 10322 10304 10287 10276 10266 10257 10247 10243 10242 10243 10245
10659 10658 10656 10653 10651 10648 10645 10641 10637 10632 10626 10621 10615 10608 10600 10593 10583 10574 10562 10551 10539 10527 10512 10496 10478 10461 10443 10424 10404 10383 10363 10344 10325 10306 10287 10273 10263 10256 10248 10241 10237 10238 10241
10646 10646 10646 10642 10639 10638 10635 10632 10629 10624 10620 10614 10608 10603 10596 10588 10580 10572 10561 10550 10538 10527 10513 10497 10481 10463 10446 10428 10408 10388 10368 10348 10329 10308 10289 10271 10259 10252 10247 10242 10236 10233 10234
10630 10632 10631 10628 10627 10627 10624 10622 10619 10616 10612 10607 10601 10595 10590 10583 10576 10568 10559 10548 10537 10526 10514 10499 10483 10467 10450 10432 10413 10393 10373 10352 10331 10310 10289 10270 10257 10250 10245 10242 10237 10233 10232
10615 10614 10614 10615 10614 10615 10613 10611 10609 10606 10603 10599 10594 10588 10583 10577 10570 10563 10556 10545 10535 10525 10513 10500 10486 10470 10453 10436 10418 10398 10377 10356 10334 10312 10289 10270 10258 10250 10246 10243 10240 10237 10235
10599 10599 10599 10599 10599 10600 10600 10597 10597 10595 10593 10589 10585 10580 10575 10571 10564 10557 10551 10542 10532 10523 10512 10501 10487 10473 10456 10439 10421 10403 10384 10362 10339 10316 10292 10273 10261 10254 10249 10246 10243 10240 10238
10585 10584 10584 10583 10583 10583 10585 10584 10584 10582 10580 10579 10576 10573 10567 10563 10558 10551 10544 10538 10529 10520 10511 10500 10488 10475 10461 10444 10426 10408 10389 10370 10346 10322 10297 10278 10267 10260 10256 10253 10249 10245 10242
10570 10569 10569 10568 10568 10566 10567 10568 10569 10569 10567 10566 10564 10563 10559 10556 10552 10546 10538 10532 10525 10518 10509 10499 10490 10478 10464 10448 10431 10414 10397 10379 10356 10333 10309 10290 10277 10271 10265 10261 10257 10254 10251
10560 10554 10553 10552 10551 10550 10550 10550 10551 10553 10553 10553 10552 10550 10549 10546 10544 10539 10533 10526 10520 10514 10507 10498 10489 10478 10465 10453 10437 10421 10405 10388 10369 10347 10325 10309 10294 10287 10279 10274 10269 10264 10261
10548 10543 10540 10536 10535 10534 10533 10534 10535 10536 10538 10538 10538 10538 10537 10536 10535 10532 10527 10521 10515 10509 10502 10495 10486 10478 10467 10455 10442 10427 10413 10398 10382 10363 10345 10328 10314 10302 10294 10286 10281 10274 10270
10534 10530 10526 10523 10520 10518 10517 10517 10518 10519 10521 10522 10523 10524 10524 10524 10524 10523 10520 10515 10509 10504 10498 10493 10485 10477 10468 10458 10446 10434 10419 10406 10393 10379 10363 10350 10336 10321 10310 10301 10293 10287 10282
10518 10515 10513 10510 10506 10503 10502 10502 10502 10502 10503 10504 10507 10509 10510 10510 10511 10512 10511 10508 10503 10497 10493 10488 10482 10474 10467 10458 10449 10438 10426 10413 10401 10388 10376 10364 10352 10339 10327 10316 10306 10297 10289
10506 10500 10496 10496 10493 10491 10489 10487 10486 10487 10485 10486 10490 10493 10495 10497 10498 10499 10500 10499 10496 10491 10487 10482 10478 10471 10464 10458 10450 10440 10431 10419 10407 10396 10384 10373 10361 10349 10338 10329 10319 10310 10301
10493 10487 10483 10481 10480 10477 10475 10473 10470 10470 10470 10469 10473 10477 10478 10483 10483 10485 10487 10488 10487 10485 10480 10475 10472 10467 10461 10455 10449 10441 10432 10423 10412 10401 10391 10380 10371 10361 10352 10342 10333 10325 10315
10477 10472 10469 10465 10463 10461 10460 10458 10455 10454 10453 10453 10455 10458 10462 10465 10468 10471 10474 10475 10477 10476 10474 10469 10464 10461 10457 10452 10446 10440 10432 10424 10415 10406 10396 10388 10379 10370 10362 10354 10346 10337 10330
10460 10455 10452 10449 10446 10443 10441 10442 10440 10437 10437 10435 10437 10442 10446 10448 10450 10454 10458 10461 10464 10464 10464 10462 10458 10453 10450 10446 10442 10437 10430 10424 10416 10409 10401 10392 10383 10376 10367 10359 10352 10345 10338
10440 10435 10434 10430 10426 10424 10422 10422 10422 10421 10419 10418 10417 10424 10430 10429 10432 10436 10441 10446 10449 10451 10452 10453 10452 10447 10442 10439 10436 10433 10427 10420 10414 10408 10401 10394 10387 10378 10371 10363 10356 10349 10342
10419 10414 10411 10410 10407 10404 10403 10402 10401 10401 10399 10399 10399 10402 10410 10411 10413 10419 10424 10428 10433 10437 10439 10441 10441 10440 10435 10431 10428 10425 10422 10417 10411 10404 10399 10393 10387 10380 10372 10365 10358 10351 10344
10396 10392 10388 10386 10386 10383 10382 10380 10380 10379 10378 10377 10378 10381 10387 10391 10395 10401 10405 10411 10415 10420 10425 10427 10429 10430 10428 10424 10419 10417 10415 10411 10406 10401 10395 10389 10384 10379 10373 10366 10358 10352 10346
10372 10369 10365 10362 10363 10363 10360 10358 10356 10355 10355 10356 10359 10361 10365 10371 10376 10382 10387 10392 10398 10403 10408 10412 10415 10417 10418 10416 10412 10408 10405 10403 10401 10396 10391 10385 10379 10374 10370 10364 10359 10352 10346
10347 10345 10342 10340 10338 10338 10336 10334 10333 10330 10331 10334 10336 10339 10344 10349 10354 10362 10368 10373 10379 10385 10391 10395 10400 10403 10405 10406 10404 10399 10396 10394 10392 10389 10385 10380 10375 10370 10364 10360 10355 10350 10345
10321 10318 10317 10315 10312 10311 10311 10310 10307 10306 10307 10310 10315 10318 10322 10329 10335 10342 10348 10354 10361 10367 10374 10378 10383 10388 10390 10392 10393 10390 10386 10384 10382 10381 10378 10374 10370 10365 10361 10355 10350 10345 10340